Williamtown, Australia

3:54 PM AEST on July 21, 2017 (GMT +1000)
Williamtown Military

Weather History for YWLM - March, 2014

Change the Weather History Date:

Sunday, March 2, 2014

  Actual Average Record
Temperature  
Mean Temperature 69 °F -  
Max Temperature 75 °F - - ()
Min Temperature 63 °F - - ()
Cooling Degree Days 4    
Growing Degree Days 19 (Base 50)    
Moisture  
Dew Point 64 °F    
Average Humidity 82    
Maximum Humidity 100    
Minimum Humidity 60    
Precipitation  
Precipitation 0.01 in - - ()
Sea Level Pressure  
Sea Level Pressure 30.11 in    
Wind  
Wind Speed 6 mph ()    
Max Wind Speed 17 mph    
Max Gust Speed -    
Visibility 6.8 miles    
Events Rain    
T = Trace of Precipitation, MM = Missing Value Source: Averaged Metar Reports

Daily Weather History Graph

Daily Weather History Graph

Search for Another Location

Airport or City:

Trip Planner

Search our weather history database for the weather conditions in past years. The results will help you decide how hot, cold, wet, or windy it might be!

Date:

Astronomy

Mar. 02, 2014 Rise Set
Actual Time 6:41 AM AEDT 7:27 PM AEDT
Civil Twilight 6:16 AM AEDT 7:52 PM AEDT
Nautical Twilight 5:47 AM AEDT 8:22 PM AEDT
Astronomical Twilight 5:16 AM AEDT 8:52 PM AEDT
Moon 7:22 AM AEDT (3/2) 7:48 PM AEDT (3/2)
Length of Visible Light 13h 35m
Length of Day
12h 45m
New Moon, 1% of the Moon is Illuminated
Mar 2
New Moon
Mar 9
First Quarter
Mar 17
Full
Mar 24
Last Quarter
Mar 31
New

Hourly Weather History & Observations

Time (AEDT) Temp. Dew Point Humidity Pressure Visibility Wind Dir Wind Speed Gust Speed Precip Events Conditions
12:00 AM 65 °F 58 °F 73% 30.12 in - East 5.8 mph - -   Overcast
12:00 AM 64.4 °F 59.0 °F 83% 30.09 in 6.2 mi East 5.8 mph - N/A   Overcast
12:30 AM 64.4 °F 60.8 °F 88% 30.09 in 6.2 mi SE 4.6 mph - N/A   Overcast
1:00 AM 64.4 °F 60.8 °F 88% 30.09 in 6.2 mi SE 3.5 mph - N/A   Overcast
1:30 AM 62.6 °F 60.8 °F 94% 30.09 in 6.2 mi ESE 2.3 mph - N/A   Overcast
2:00 AM 64 °F 62 °F 91% 30.09 in - West 3.5 mph - -  
2:00 AM 64.4 °F 62.6 °F 94% 30.06 in 6.2 mi West 3.5 mph - N/A Rain Light Rain Showers
2:30 AM 64.4 °F 62.6 °F 94% 30.06 in 6.2 mi WNW 3.5 mph - N/A   Mostly Cloudy
3:00 AM 64 °F 62 °F 92% 30.07 in - Calm Calm - -   Overcast
3:00 AM 64.4 °F 62.6 °F 94% 30.06 in 6.2 mi Calm Calm - N/A Rain Light Rain Showers
3:30 AM 64.4 °F 62.6 °F 94% 30.06 in 6.2 mi WNW 1.2 mph - N/A Rain Light Rain Showers
4:00 AM 64.4 °F 62.6 °F 94% 30.06 in 6.2 mi SW 4.6 mph - N/A   Overcast
4:30 AM 64.4 °F 62.6 °F 94% 30.04 in 6.2 mi SSE 4.6 mph - N/A   Overcast
5:00 AM 65 °F 63 °F 90% 30.07 in - South 5.8 mph - -  
5:00 AM 64.4 °F 62.6 °F 94% 30.06 in 6.2 mi South 5.8 mph - N/A   Overcast
5:30 AM 64.4 °F 62.6 °F 94% 30.06 in 6.2 mi SE 5.8 mph - N/A   Drizzle
6:00 AM 65 °F 63 °F 91% 30.07 in 12 mi SSE 4.6 mph - - Rain Light Rain
6:00 AM 64.4 °F 62.6 °F 94% 30.06 in 6.2 mi SSE 4.6 mph - N/A Rain Light Rain
6:30 AM 64.4 °F 62.6 °F 94% 30.06 in 6.2 mi SSE 1.2 mph - N/A   Overcast
7:00 AM 64.4 °F 64.4 °F 100% 30.06 in 6.2 mi SSW 5.8 mph - N/A Rain Light Rain
7:30 AM 66.2 °F 64.4 °F 94% 30.06 in 6.2 mi Calm Calm - N/A   Overcast
8:00 AM 67 °F 65 °F 90% 30.10 in - SSW 5.8 mph - -  
8:00 AM 66.2 °F 64.4 °F 94% 30.09 in 6.2 mi SSW 5.8 mph - N/A   Overcast
8:30 AM 68.0 °F 66.2 °F 94% 30.09 in 6.2 mi SSW 5.8 mph - N/A   Mostly Cloudy
9:00 AM 69 °F 65 °F 83% 30.12 in 12 mi SW 5.8 mph - -   Haze
9:00 AM 68.0 °F 64.4 °F 88% 30.09 in 6.2 mi SW 5.8 mph - N/A   Mostly Cloudy
9:30 AM 69.8 °F 64.4 °F 83% 30.09 in 6.2 mi SSW 5.8 mph - N/A   Mostly Cloudy
10:00 AM 69.8 °F 64.4 °F 83% 30.12 in 6.2 mi SSW 8.1 mph - N/A   Mostly Cloudy
10:30 AM 71.6 °F 66.2 °F 83% 30.12 in 6.2 mi SSW 10.4 mph - N/A   Mostly Cloudy
11:00 AM 72 °F 64 °F 69% 30.13 in - SSW 6.9 mph - -  
11:00 AM 71.6 °F 64.4 °F 78% 30.12 in 6.2 mi SSW 6.9 mph - N/A   Mostly Cloudy
11:30 AM 73.4 °F 62.6 °F 69% 30.12 in 6.2 mi SSE 5.8 mph - N/A   Mostly Cloudy
12:00 PM 74 °F 63 °F 60% 30.13 in 16 mi SSE 6.9 mph - -   Mostly Cloudy
12:00 PM 75.2 °F 62.6 °F 65% 30.12 in 6.2 mi SSE 6.9 mph - N/A   Mostly Cloudy
12:30 PM 75.2 °F 62.6 °F 65% 30.12 in 6.2 mi South 9.2 mph - N/A   Mostly Cloudy
1:00 PM 73.4 °F 62.6 °F 69% 30.12 in 6.2 mi SSE 10.4 mph - N/A   Mostly Cloudy
1:30 PM 75.2 °F 64.4 °F 69% 30.12 in 6.2 mi South 13.8 mph - N/A   Mostly Cloudy
2:00 PM 75 °F 65 °F 62% 30.12 in - South 17.3 mph - -  
2:00 PM 75.2 °F 64.4 °F 69% 30.12 in 6.2 mi South 17.3 mph - N/A   Mostly Cloudy
2:30 PM 75.2 °F 64.4 °F 69% 30.09 in 6.2 mi South 16.1 mph - N/A   Mostly Cloudy
3:00 PM 74 °F 64 °F 65% 30.11 in 16 mi South 17.3 mph - -   Haze
3:00 PM 73.4 °F 64.4 °F 73% 30.09 in 6.2 mi South 17.3 mph - N/A   Mostly Cloudy
3:30 PM 73.4 °F 64.4 °F 73% 30.09 in 6.2 mi South 17.3 mph - N/A   Overcast
4:00 PM 73.4 °F 64.4 °F 73% 30.09 in 6.2 mi South 13.8 mph - N/A   Overcast
4:30 PM 73.4 °F 64.4 °F 73% 30.09 in 6.2 mi South 12.7 mph - N/A   Overcast
5:00 PM 73 °F 64 °F 67% 30.11 in - SSE 13.8 mph - -  
5:00 PM 73.4 °F 64.4 °F 73% 30.09 in 6.2 mi SSE 13.8 mph - N/A   Overcast
5:30 PM 73.4 °F 64.4 °F 73% 30.09 in 6.2 mi SSE 15.0 mph - N/A   Scattered Clouds
6:00 PM 72 °F 64 °F 69% 30.13 in - South 15.0 mph - -  
6:00 PM 71.6 °F 64.4 °F 78% 30.12 in 6.2 mi South 15.0 mph - N/A   Unknown
6:30 PM 71.6 °F 64.4 °F 78% 30.12 in 6.2 mi South 13.8 mph - N/A   Mostly Cloudy
7:00 PM 71.6 °F 64.4 °F 78% 30.12 in 6.2 mi South 12.7 mph - N/A Rain Light Rain
7:12 PM 69.8 °F 66.2 °F 88% 30.12 in 6.2 mi South 11.5 mph - N/A Rain Light Rain Showers
7:30 PM 69.8 °F 64.4 °F 83% 30.12 in 6.2 mi SE 10.4 mph - N/A   Overcast
7:53 PM 69.8 °F 66.2 °F 88% 30.15 in 6.2 mi SE 8.1 mph - N/A   Overcast
8:00 PM 69 °F 66 °F 86% 30.15 in - SE 6.9 mph - -  
8:00 PM 69.8 °F 66.2 °F 88% 30.15 in 6.2 mi SE 6.9 mph - N/A   Overcast
8:30 PM 69.8 °F 64.4 °F 83% 30.15 in 6.2 mi ESE 5.8 mph - N/A   Overcast
9:00 PM 69 °F 64 °F 81% 30.17 in - ESE 4.6 mph - -  
9:00 PM 69.8 °F 64.4 °F 83% 30.15 in 6.2 mi ESE 4.6 mph - N/A   Scattered Clouds
9:30 PM 69.8 °F 64.4 °F 83% 30.18 in 6.2 mi Calm Calm - N/A   Mostly Cloudy
10:00 PM 69.8 °F 64.4 °F 83% 30.18 in 6.2 mi East 2.3 mph - N/A   Overcast
10:30 PM 68.0 °F 64.4 °F 88% 30.18 in 6.2 mi East 5.8 mph - N/A   Overcast
11:00 PM 68 °F 65 °F 85% 30.19 in - East 8.1 mph - -  
11:00 PM 68.0 °F 64.4 °F 88% 30.18 in 6.2 mi East 8.1 mph - N/A   Overcast
11:30 PM 68.0 °F 64.4 °F 88% 30.18 in 6.2 mi ENE 5.8 mph - N/A   Overcast